Regional Weather Roundup
Issued by NWS

Home | Current Version | Previous Version | Text Only | Print | Product List | Glossary Off
Versions: 1 2 3 4 5 6 7 8 9 10 11 12 13 14 15 16 17 18 19 20 21 22 23 24 25 26 27 28 29 30 31 32 33 34 35 36 37 38 39 40 41 42 43 44 45 46 47 48 49 50

244
ASUS43 KFSD 220602
RWRSD

WEATHER ROUNDUP FOR SOUTH DAKOTA
NATIONAL WEATHER SERVICE SIOUX FALLS SD
1200 AM CST MON JAN 22 2018

NOTE: "FAIR" INDICATES FEW OR NO CLOUDS BELOW 12,000 FEET WITH NO
SIGNIFICANT WEATHER AND/OR OBSTRUCTIONS TO VISIBILITY.


SDZ001>005-009-010-012>017-220700-
NORTHWEST AND NORTH CENTRAL SOUTH DAKOTA

CITY           SKY/WX    TMP DP  RH WIND       PRES   REMARKS
BUFFALO          N/A     19  14  81 W8        29.93F WCI   9
FAITH            N/A     23  22  96 NW8       30.00F WCI  14
MOBRIDGE       PTCLDY    22  19  89 N9        29.98F WCI  12
$$

SDZ012>016-024>037-041>051-057-063-072>074-220700-
SOUTHWEST AND SOUTH CENTRAL SOUTH DAKOTA

CITY           SKY/WX    TMP DP  RH WIND       PRES   REMARKS
RAPID CTY ARPT CLOUDY    29  21  72 N18       29.98S WCI  16
PIERRE         CLOUDY    27  25  92 N13       29.97S WCI  16
CUSTER         MOCLDY    22  13  68 N6        29.91S WCI  14
ELLSWORTH AFB  MOCLDY    30  22  73 NW17      29.98S WCI  18
PHILIP         PTCLDY    26  23  88 CALM      29.98S
PINE RIDGE     CLOUDY    28  23  81 N9        29.95S WCI  19
SPEARFISH        N/A     23  18  80 W8        30.01S WCI  14
WINNER         CLOUDY    30  28  92 N20       29.91F FOG     WCI  17
$$

SDZ004>011-016>023-039-040-220700-
NORTHEAST SOUTH DAKOTA

CITY           SKY/WX    TMP DP  RH WIND       PRES   REMARKS
ABERDEEN       CLOUDY    25  24  96 NE13      30.02F WCI  14
WATERTOWN      CLOUDY    24  24 100 NE14      29.94R WCI  12
BROOKINGS      LGT SNOW  28  26  92 NE17G25   29.88F FOG     WCI  16
SISSETON         N/A     25  23  92 N16       30.02F WCI  12
$$

SDZ017-020-022-023-036>040-048>070-220700-
SOUTHEAST SOUTH DAKOTA

CITY           SKY/WX    TMP DP  RH WIND       PRES   REMARKS
SIOUX FALLS    LGT SNOW  32  30  92 NE24G32   29.82F FOG     WCI  19
HURON          CLOUDY    26  25  96 N14       29.95F WCI  14
CHAMBERLAIN    LGT SNOW  30  30 100 N14       29.94S WCI  19
MITCHELL       SNOW      32  31  96 N20       29.90F VSB 1/2 WCI  20
YANKTON        LGT RAIN  34  32  92 N23       29.79F WCI  22
$$

ABBREVIATIONS USED IN REMARKS
   TC - TEMPERATURE IN CELSIUS
  WCI - WIND CHILL INDEX
   HX - HEAT INDEX
  VSB - VISIBILITY





USA.gov is the U.S. government's official web portal to all federal, state and local government web resources and services.